Flag for Germany Weather past 2 weeks in Göttingen, Lower Saxony, Germany

Now
68 °F

Clear.


Feels Like: 68 °F
Forecast: 62 / 88 °F
Wind: 1 mph from North

Location: Kassel / Calden

Current Time: Aug 30, 2015 at 10:52:45 AM

Latest Report: Aug 30, 2015 at 10:20 AM


Visibility: 6 mi

Pressure: 30.09 "Hg

Humidity: 88%

Dew point: 64 °F

Location of GöttingenLocation

Historic Weather in Göttingen — Graph

°F

Göttingen temperature yesterday

Maximum temperature yesterday: 75 °F (at 4:20 PM)
Minimum temperature yesterday: 50 °F (at 5:50 AM)
Average temperature yesterday: 66 °F

Past Weeks' High & Low Weather Summary

 TemperatureHumidityPressure
High81 °F (Aug 15, 4:50 PM)100% (Aug 16, 6:50 AM)30.30 "Hg (Aug 16, 6:50 AM)
Low48 °F (Aug 19, 5:50 AM)30% (Aug 22, 3:20 PM)29.65 "Hg (Aug 24, 4:50 PM)
Average65 °F73%30.00 "Hg
* Reported Aug 15 9:20 AM — Aug 30 9:20 AM, Göttingen, Weather by CustomWeather, © 2015

Note: Actual official high and low records may vary slightly from our data, if they occured in-between our weather recording intervals... More about our weather records

Advertising

Göttingen weather history for previous 24 hours

 ConditionsComfort  
Time TempWeatherWind HumidityBarometerVisibility
9:20 AM
Sun, Aug 30
64 °FFog.5 mph100%30.12 "Hg3 mi
8:50 AM64 °FClear.2 mph100%30.12 "Hg6 mi
8:20 AM64 °FSunny.3 mph94%30.12 "Hg10 mi
7:50 AM64 °FScattered clouds.1 mph94%30.09 "HgN/A
7:20 AM63 °FPassing clouds.5 mph100%30.09 "HgN/A
6:50 AM59 °FFog.5 mph100%30.09 "HgN/A
6:20 AM57 °FFog.1 mph100%30.09 "Hg0 mi
5:50 AM59 °FFog.1 mph100%30.09 "Hg1 mi
10:20 PM
Sat, Aug 29
66 °FClear.2 mph88%30.15 "Hg10 mi
9:50 PM66 °FClear.5 mph88%30.15 "Hg10 mi
9:20 PM68 °FClear.2 mph83%30.15 "Hg10 mi
8:50 PM68 °FSunny.1 mph83%30.15 "Hg10 mi
8:20 PM70 °FSunny.3 mph78%30.15 "Hg10 mi
7:50 PM73 °FSunny.5 mph69%30.15 "Hg10 mi
7:20 PM73 °FSunny.5 mph69%30.15 "Hg10 mi
6:50 PM75 °FSunny.6 mph65%30.15 "Hg10 mi
6:20 PM75 °FSunny.7 mph65%30.15 "Hg10 mi
5:50 PM75 °FPassing clouds.6 mph61%30.15 "HgN/A
5:20 PM75 °FPassing clouds.6 mph61%30.18 "HgN/A
4:50 PM73 °FBroken clouds.3 mph65%30.18 "HgN/A
4:20 PM75 °FPassing clouds.2 mph57%30.18 "HgN/A
3:50 PM73 °FPassing clouds.6 mph57%30.18 "HgN/A
3:20 PM73 °FPassing clouds.6 mph57%30.21 "HgN/A
2:50 PM73 °FPassing clouds.9 mph57%30.21 "HgN/A
2:20 PM72 °FPassing clouds.6 mph57%30.21 "HgN/A
1:50 PM72 °FPassing clouds.7 mph53%30.21 "HgN/A
1:20 PM70 °FPassing clouds.9 mph60%30.24 "HgN/A
12:50 PM68 °FPassing clouds.8 mph64%30.24 "HgN/A
11:50 AM66 °FPassing clouds.5 mph78%30.24 "HgN/A
11:20 AM63 °FScattered clouds.2 mph88%30.24 "HgN/A
10:50 AM61 °FScattered clouds.1 mph94%30.24 "Hg5 mi
10:20 AM57 °FFog.3 mph100%30.27 "Hg1 mi
Weather by CustomWeather, © 2015

See weather overviewHow to use our weather pages